AVA355 SKBO-SKRG

Flight info

Callsign AVA355
Flight time 0h 27m
Altitude 24000
Route VASIL2T VASIL W36 NIRSO NIRSO3C
Aircraft A320/M-SDE3FGHIRWY/LB1

Departure

Time 2026-04-25 00:46
Airport El Dorado International Airport (SKBO)

Arrival

Time 2026-04-25 01:14
Airport Jose Maria Córdova International Airport (SKRG)
Time Latitude Longitude Altitude Speed Heading
2026-04-24 23:53 4.69857 -74.14433 8370 ft 0 kts 228°
2026-04-25 00:17 4.69862 -74.14429 8373 ft 4 kts 229°
2026-04-25 00:17 4.69878 -74.14407 8370 ft 4 kts 240°
2026-04-25 00:17 4.69888 -74.14383 8371 ft 4 kts 268°
2026-04-25 00:17 4.69884 -74.14365 8373 ft 0 kts 308°
2026-04-25 00:21 4.69889 -74.14372 8372 ft 5 kts 308°
2026-04-25 00:21 4.69909 -74.14397 8373 ft 4 kts 307°
2026-04-25 00:21 4.69930 -74.14425 8373 ft 8 kts 307°
2026-04-25 00:22 4.69991 -74.14506 8373 ft 17 kts 307°
2026-04-25 00:22 4.70048 -74.14578 8373 ft 10 kts 316°
2026-04-25 00:22 4.70107 -74.14620 8372 ft 11 kts 315°
2026-04-25 00:22 4.70161 -74.14675 8373 ft 11 kts 303°
2026-04-25 00:23 4.70132 -74.14736 8372 ft 12 kts 216°
2026-04-25 00:23 4.70061 -74.14789 8373 ft 16 kts 218°
2026-04-25 00:23 4.69967 -74.14861 8373 ft 14 kts 216°
2026-04-25 00:23 4.69904 -74.14909 8373 ft 0 kts 220°
2026-04-25 00:24 4.69883 -74.14926 8373 ft 5 kts 221°
2026-04-25 00:24 4.69861 -74.14963 8372 ft 7 kts 265°
2026-04-25 00:25 4.69899 -74.15033 8371 ft 15 kts 306°
2026-04-25 00:25 4.69965 -74.15121 8373 ft 16 kts 307°
2026-04-25 00:25 4.70038 -74.15217 8373 ft 19 kts 307°
2026-04-25 00:25 4.70119 -74.15325 8373 ft 20 kts 307°
2026-04-25 00:26 4.70204 -74.15435 8373 ft 21 kts 307°
2026-04-25 00:26 4.70288 -74.15547 8374 ft 19 kts 307°
2026-04-25 00:26 4.70350 -74.15630 8373 ft 15 kts 307°
2026-04-25 00:26 4.70414 -74.15714 8373 ft 16 kts 308°
2026-04-25 00:27 4.70482 -74.15803 8373 ft 17 kts 307°
2026-04-25 00:27 4.70553 -74.15898 8373 ft 18 kts 306°
2026-04-25 00:27 4.70629 -74.15998 8370 ft 18 kts 307°
2026-04-25 00:27 4.70708 -74.16102 8372 ft 19 kts 307°
2026-04-25 00:28 4.70791 -74.16211 8374 ft 20 kts 307°
2026-04-25 00:28 4.70877 -74.16325 8374 ft 21 kts 307°
2026-04-25 00:28 4.70966 -74.16442 8372 ft 22 kts 307°
2026-04-25 00:28 4.71058 -74.16564 8373 ft 22 kts 307°
2026-04-25 00:29 4.71148 -74.16683 8373 ft 21 kts 307°
2026-04-25 00:29 4.71202 -74.16764 8370 ft 4 kts 289°
2026-04-25 00:29 4.71202 -74.16765 8370 ft 0 kts 288°
2026-04-25 00:32 4.71203 -74.16770 8371 ft 4 kts 281°
2026-04-25 00:32 4.71186 -74.16804 8370 ft 0 kts 223°
2026-04-25 00:36 4.71164 -74.16822 8373 ft 6 kts 218°
2026-04-25 00:36 4.71138 -74.16841 8374 ft 0 kts 216°
2026-04-25 00:44 4.71113 -74.16860 8373 ft 10 kts 216°
2026-04-25 00:44 4.71047 -74.16889 8373 ft 9 kts 169°
2026-04-25 00:44 4.71007 -74.16851 8372 ft 0 kts 128°
2026-04-25 00:45 4.71006 -74.16850 8371 ft 3 kts 128°
2026-04-25 00:45 4.70877 -74.16679 8374 ft 67 kts 127°
2026-04-25 00:45 4.70463 -74.16136 8374 ft 127 kts 127°
2026-04-25 00:46 4.69828 -74.15294 8375 ft 174 kts 127°
2026-04-25 00:46 4.69052 -74.14260 8768 ft 192 kts 128°
2026-04-25 00:46 4.66814 -74.12700 9834 ft 212 kts 179°
2026-04-25 00:47 4.65354 -74.13028 10288 ft 223 kts 212°
2026-04-25 00:47 4.64557 -74.13695 10575 ft 230 kts 233°
2026-04-25 00:47 4.63872 -74.15161 11078 ft 239 kts 256°
2026-04-25 00:47 4.63367 -74.17389 11872 ft 249 kts 258°
2026-04-25 00:48 4.63062 -74.18503 12322 ft 253 kts 249°
2026-04-25 00:48 4.62171 -74.20046 12974 ft 261 kts 235°
2026-04-25 00:48 4.61193 -74.21601 13616 ft 267 kts 248°
2026-04-25 00:48 4.60757 -74.23433 14116 ft 278 kts 269°
2026-04-25 00:49 4.60839 -74.25419 14495 ft 293 kts 274°
2026-04-25 00:49 4.60776 -74.27506 14903 ft 306 kts 266°
2026-04-25 00:49 4.60569 -74.29708 15098 ft 329 kts 264°
2026-04-25 00:49 4.60293 -74.32028 15302 ft 348 kts 264°
2026-04-25 00:50 4.60019 -74.34500 15808 ft 355 kts 265°
2026-04-25 00:50 4.59797 -74.36949 16381 ft 359 kts 266°
2026-04-25 00:50 4.59926 -74.39452 16969 ft 362 kts 282°
2026-04-25 00:50 4.60750 -74.41842 17573 ft 365 kts 297°
2026-04-25 00:51 4.62174 -74.43962 18177 ft 369 kts 308°
2026-04-25 00:51 4.63777 -74.45981 18741 ft 372 kts 308°
2026-04-25 00:51 4.65393 -74.48023 19246 ft 375 kts 308°
2026-04-25 00:51 4.67016 -74.50089 19689 ft 379 kts 308°
2026-04-25 00:52 4.68649 -74.52173 20022 ft 381 kts 308°
2026-04-25 00:52 4.70284 -74.54261 20134 ft 377 kts 308°
2026-04-25 00:52 4.71852 -74.56261 20151 ft 365 kts 308°
2026-04-25 00:52 4.73371 -74.58266 20157 ft 362 kts 306°
2026-04-25 00:53 4.74847 -74.60331 20158 ft 362 kts 305°
2026-04-25 00:53 4.76279 -74.62401 20156 ft 361 kts 304°
2026-04-25 00:53 4.77701 -74.64479 20130 ft 361 kts 304°
2026-04-25 00:53 4.79120 -74.66553 20137 ft 360 kts 304°
2026-04-25 00:54 4.80539 -74.68612 20122 ft 359 kts 304°
2026-04-25 00:54 4.81968 -74.70668 20133 ft 359 kts 304°
2026-04-25 00:54 4.83394 -74.72709 20130 ft 357 kts 304°
2026-04-25 00:54 4.84820 -74.74745 20136 ft 357 kts 305°
2026-04-25 00:55 4.86248 -74.76782 20151 ft 357 kts 304°
2026-04-25 00:55 4.88135 -74.79479 20157 ft 357 kts 304°
2026-04-25 00:55 4.89097 -74.80854 20151 ft 357 kts 305°
2026-04-25 00:55 4.90504 -74.82868 20147 ft 357 kts 305°
2026-04-25 00:56 4.91931 -74.84910 20137 ft 358 kts 305°
2026-04-25 00:56 4.93360 -74.86957 20062 ft 359 kts 304°
2026-04-25 00:56 4.94789 -74.89005 20048 ft 359 kts 304°
2026-04-25 00:56 4.96223 -74.91058 20048 ft 359 kts 304°
2026-04-25 00:57 4.97650 -74.93101 20039 ft 358 kts 304°
2026-04-25 00:57 4.99078 -74.95146 20038 ft 357 kts 304°
2026-04-25 00:57 5.00502 -74.97185 20049 ft 357 kts 304°
2026-04-25 00:57 5.01925 -74.99225 20049 ft 357 kts 304°
2026-04-25 00:58 5.03349 -75.01263 20172 ft 357 kts 304°
2026-04-25 00:58 5.04777 -75.03306 20168 ft 358 kts 305°
2026-04-25 00:58 5.06207 -75.05349 20172 ft 357 kts 304°
2026-04-25 00:58 5.07615 -75.07359 20201 ft 357 kts 305°
2026-04-25 00:59 5.09059 -75.09427 20186 ft 358 kts 305°
2026-04-25 00:59 5.10468 -75.11444 20186 ft 358 kts 305°
2026-04-25 00:59 5.11898 -75.13489 20189 ft 358 kts 305°
2026-04-25 00:59 5.13325 -75.15534 20203 ft 358 kts 305°
2026-04-25 01:00 5.14754 -75.17586 20210 ft 359 kts 304°
2026-04-25 01:00 5.16274 -75.19565 20225 ft 358 kts 311°
2026-04-25 01:00 5.17914 -75.21422 19924 ft 353 kts 311°
2026-04-25 01:00 5.19530 -75.23248 19585 ft 348 kts 311°
2026-04-25 01:01 5.21128 -75.25050 19250 ft 344 kts 311°
2026-04-25 01:01 5.22691 -75.26809 18913 ft 341 kts 311°
2026-04-25 01:01 5.24257 -75.28578 18590 ft 338 kts 311°
2026-04-25 01:01 5.25817 -75.30339 18216 ft 336 kts 311°
2026-04-25 01:02 5.27362 -75.32090 17839 ft 334 kts 310°
2026-04-25 01:02 5.28898 -75.33831 17454 ft 332 kts 310°
2026-04-25 01:02 5.30425 -75.35561 17064 ft 330 kts 310°
2026-04-25 01:02 5.31984 -75.37246 16690 ft 329 kts 317°
2026-04-25 01:03 5.33820 -75.38612 16301 ft 329 kts 329°
2026-04-25 01:03 5.35908 -75.39545 15974 ft 328 kts 341°
2026-04-25 01:03 5.38141 -75.40002 15904 ft 329 kts 353°
2026-04-25 01:03 5.40398 -75.40142 15764 ft 329 kts 355°
2026-04-25 01:04 5.42684 -75.40271 15597 ft 328 kts 355°
2026-04-25 01:04 5.44962 -75.40399 15435 ft 328 kts 355°
2026-04-25 01:04 5.47234 -75.40526 15274 ft 327 kts 355°
2026-04-25 01:04 5.49502 -75.40653 15112 ft 326 kts 355°
2026-04-25 01:05 5.51767 -75.40781 14950 ft 325 kts 355°
2026-04-25 01:05 5.54025 -75.40908 14787 ft 325 kts 355°
2026-04-25 01:05 5.56278 -75.41034 14629 ft 324 kts 355°
2026-04-25 01:05 5.58526 -75.41160 14471 ft 323 kts 355°
2026-04-25 01:06 5.60768 -75.41284 14323 ft 322 kts 355°
2026-04-25 01:06 5.63007 -75.41407 14164 ft 322 kts 355°
2026-04-25 01:06 5.65208 -75.41528 14008 ft 321 kts 355°
2026-04-25 01:06 5.67437 -75.41651 13828 ft 320 kts 355°
2026-04-25 01:07 5.69657 -75.41774 13650 ft 319 kts 355°
2026-04-25 01:07 5.71849 -75.41897 13473 ft 312 kts 355°
2026-04-25 01:07 5.73993 -75.42016 13293 ft 305 kts 355°
2026-04-25 01:07 5.76082 -75.42131 13135 ft 297 kts 355°
2026-04-25 01:08 5.78121 -75.42235 12941 ft 291 kts 356°
2026-04-25 01:08 5.80128 -75.42273 12743 ft 286 kts 358°
2026-04-25 01:08 5.82100 -75.42270 12550 ft 281 kts 359°
2026-04-25 01:08 5.84035 -75.42253 12363 ft 275 kts 359°
2026-04-25 01:09 5.85935 -75.42233 12172 ft 271 kts 359°
2026-04-25 01:09 5.87778 -75.42220 12035 ft 265 kts 359°
2026-04-25 01:09 5.89589 -75.42216 11981 ft 255 kts 358°
2026-04-25 01:09 5.91342 -75.42218 11988 ft 251 kts 359°
2026-04-25 01:10 5.93124 -75.42184 11443 ft 264 kts 359°
2026-04-25 01:10 5.95007 -75.42171 10850 ft 276 kts 358°
2026-04-25 01:10 5.96934 -75.42183 10471 ft 277 kts 358°
2026-04-25 01:10 5.98853 -75.42197 10133 ft 273 kts 359°
2026-04-25 01:11 6.00703 -75.42209 9779 ft 259 kts 358°
2026-04-25 01:11 6.02459 -75.42220 9448 ft 246 kts 359°
2026-04-25 01:11 6.04132 -75.42231 9140 ft 235 kts 358°
2026-04-25 01:11 6.05732 -75.42242 8853 ft 224 kts 359°
2026-04-25 01:12 6.07215 -75.42251 8580 ft 209 kts 359°
2026-04-25 01:12 6.08624 -75.42261 8308 ft 196 kts 359°
2026-04-25 01:12 6.09940 -75.42269 8070 ft 183 kts 359°
2026-04-25 01:12 6.11156 -75.42277 7838 ft 166 kts 359°
2026-04-25 01:13 6.12278 -75.42278 7554 ft 157 kts
2026-04-25 01:13 6.13354 -75.42299 7355 ft 153 kts 359°
2026-04-25 01:13 6.14416 -75.42299 7121 ft 151 kts
2026-04-25 01:13 6.15462 -75.42309 6986 ft 144 kts
2026-04-25 01:14 6.16269 -75.42310 6985 ft 75 kts
2026-04-25 01:14 6.16635 -75.42314 7003 ft 45 kts 359°
2026-04-25 01:14 6.16908 -75.42322 7016 ft 32 kts 348°
2026-04-25 01:14 6.17063 -75.42385 7018 ft 20 kts 330°
2026-04-25 01:15 6.17130 -75.42423 7019 ft 0 kts 330°
2026-04-25 01:15 6.17134 -75.42425 7020 ft 3 kts 330°
2026-04-25 01:16 6.17151 -75.42435 7020 ft 2 kts 330°
2026-04-25 01:16 6.17162 -75.42441 7018 ft 4 kts 330°
2026-04-25 01:16 6.17190 -75.42485 7018 ft 9 kts 282°
2026-04-25 01:16 6.17190 -75.42552 7017 ft 10 kts 270°
2026-04-25 01:17 6.17170 -75.42613 7021 ft 10 kts 218°
2026-04-25 01:17 6.17148 -75.42655 7017 ft 1 kts 268°
2026-04-25 01:17 6.17148 -75.42669 7016 ft 2 kts 269°
2026-04-25 01:17 6.17147 -75.42679 7016 ft 2 kts 269°
2026-04-25 01:18 6.17147 -75.42684 7016 ft 0 kts 269°